Location: Eagle Observatory
(42.5300°N, 88.2800°W)
Time: 03:12:16
(UTC-05:00)

HST - Visible Passes

Search period start: 01 October 2014 00:00
Search period end: 11 October 2014 00:00
Orbit: 547 x 551 km, 28.5° (Epoch: 30 September)

Date Brightness Start Highest point End Pass type
(mag) Time Alt. Az. Time Alt. Az. Time Alt. Az.
08 Oct 3.3 06:25:32 10° SSW 06:27:00 12° S 06:28:29 10° SSE visible
09 Oct 3.2 06:18:14 10° SSW 06:19:41 12° S 06:21:07 10° SSE visible
10 Oct 3.2 06:11:07 10° SSW 06:12:21 11° S 06:13:35 10° SSE visible
